QPF
0.00 0.00 0.00 0.00 0.00 0.01 0.01 0.02 0.02 0.01 0.01 0.02 0.03 0.02 0.02 0.03 0.03 0.03 0.02 0.01 0.01 0.01 0.01 0.00 0.02 0.02 0.02 0.02 0.03 0.03 0.03 0.05 0.04 0.04 0.04 0.04 0.04 0.04 0.05 0.05 0.07 0.10 0.09 0.06
0.00 0.00 0.00 0.00 0.00 0.00 0.01 0.01 0.02 0.01 0.01 0.01 0.01 0.01 0.03 0.03 0.02 0.02 0.02 0.02 0.01 0.01 0.01 0.01 0.01 0.01 0.02 0.03 0.08 0.04 0.04 0.04 0.04 0.07 0.05 0.02 0.03 0.03 0.05 0.05 0.05 0.05 0.04 0.04
0.00 0.00 0.00 0.00 0.00 0.00 0.00 0.01 0.01 0.00 0.01 0.01 0.01 0.02 0.05 0.05 0.02 0.02 0.02 0.02 0.02 0.02 0.02 0.02 0.01 0.02 0.03 0.04 0.03 0.02 0.02 0.03 0.04 0.05 0.03 0.02 0.03 0.04 0.05 0.05 0.03 0.02 0.02 0.03
0.00 0.00 0.00 0.00 0.00 0.00 0.00 0.00 0.01 0.00 0.00 0.01 0.01 0.02 0.03 0.03 0.03 0.03 0.02 0.02 0.02 0.02 0.02 0.02 0.02 0.04 0.05 0.05 0.02 0.02 0.02 0.02 0.03 0.03 0.04 0.03 0.03 0.04 0.04 0.04 0.04 0.03 0.02 0.02
0.00 0.00 0.00 0.00 0.00 0.00 0.00 0.00 0.01 0.01 0.01 0.01 0.01 0.03 0.02 0.02 0.03 0.04 0.03 0.02 0.02 0.03 0.03 0.02 0.03 0.04 0.04 0.03 0.02 0.02 0.02 0.02 0.02 0.02 0.02 0.03 0.03 0.04 0.05 0.05 0.05 0.04 0.03 0.02
0.00 0.00 0.00 0.00 0.00 0.00 0.00 0.00 0.01 0.01 0.01 0.01 0.01 0.01 0.02 0.02 0.05 0.03 0.03 0.02 0.03 0.02 0.03 0.02 0.03 0.04 0.03 0.03 0.02 0.02 0.02 0.02 0.03 0.02 0.02 0.03 0.03 0.03 0.04 0.05 0.06 0.05 0.06 0.04
0.00 0.00 0.00 0.00 0.00 0.00 0.00 0.00 0.02 0.02 0.02 0.01 0.01 0.01 0.01 0.01 0.01 0.02 0.02 0.02 0.03 0.03 0.02 0.03 0.03 0.04 0.03 0.03 0.03 0.02 0.01 0.03 0.03 0.03 0.02 0.03 0.03 0.02 0.02 0.03 0.03 0.05 0.05 0.04
0.00 0.00 0.00 0.00 0.00 0.00 0.00 0.00 0.01 0.02 0.02 0.01 0.01 0.01 0.03 0.03 0.02 0.02 0.03 0.03 0.02 0.02 0.02 0.02 0.02 0.02 0.02 0.02 0.03 0.03 0.02 0.02 0.02 0.02 0.02 0.03 0.03 0.02 0.02 0.02 0.04 0.04 0.04 0.04
0.00 0.00 0.00 0.00 0.00 0.00 0.00 0.00 0.00 0.00 0.01 0.01 0.02 0.01 0.03 0.07 0.06 0.06 0.07 0.04 0.03 0.02 0.01 0.01 0.01 0.01 0.01 0.01 0.03 0.04 0.02 0.02 0.02 0.01 0.01 0.02 0.02 0.02 0.02 0.03 0.05 0.05 0.04 0.03
0.00 0.00 0.00 0.00 0.00 0.00 0.00 0.00 0.00 0.00 0.00 0.01 0.02 0.03 0.03 0.08 0.08 0.09 0.09 0.06 0.03 0.02 0.01 0.01 0.01 0.01 0.01 0.01 0.03 0.04 0.03 0.02 0.01 0.01 0.01 0.02 0.02 0.03 0.03 0.04 0.04 0.04 0.03 0.02
0.00 0.00 0.00 0.00 0.00 0.00 0.00 0.00 0.00 0.00 0.00 0.00 0.01 0.02 0.03 0.05 0.08 0.13 0.08 0.06 0.04 0.02 0.02 0.01 0.01 0.01 0.02 0.02 0.03 0.03 0.02 0.01 0.00 0.01 0.01 0.02 0.02 0.03 0.03 0.03 0.03 0.03 0.03 0.03
0.00 0.00 0.00 0.00 0.00 0.00 0.00 0.00 0.00 0.00 0.00 0.00 0.00 0.02 0.02 0.02 0.04 0.10 0.05 0.06 0.05 0.03 0.02 0.01 0.01 0.02 0.02 0.02 0.03 0.02 0.01 0.00 0.00 0.01 0.01 0.02 0.01 0.02 0.02 0.02 0.02 0.02 0.02 0.02
0.00 0.00 0.00 0.00 0.00 0.00 0.00 0.00 0.00 0.00 0.00 0.00 0.01 0.02 0.02 0.02 0.02 0.09 0.07 0.05 0.04 0.06 0.05 0.03 0.02 0.03 0.03 0.04 0.03 0.01 0.00 0.00 0.00 0.01 0.01 0.01 0.01 0.02 0.02 0.02 0.02 0.02 0.01 0.02
0.00 0.00 0.00 0.00 0.00 0.00 0.00 0.00 0.00 0.00 0.00 0.00 0.00 0.01 0.03 0.08 0.05 0.07 0.05 0.04 0.04 0.09 0.06 0.04 0.02 0.02 0.03 0.04 0.02 0.01 0.00 0.00 0.00 0.00 0.01 0.01 0.02 0.02 0.03 0.03 0.02 0.02 0.02 0.02
0.00 0.00 0.00 0.00 0.00 0.00 0.00 0.00 0.00 0.00 0.00 0.00 0.00 0.00 0.03 0.06 0.05 0.08 0.10 0.07 0.05 0.05 0.04 0.04 0.04 0.03 0.03 0.02 0.01 0.01 0.01 0.00 0.00 0.00 0.01 0.01 0.01 0.03 0.03 0.03 0.03 0.04 0.03 0.02
0.00 0.00 0.00 0.00 0.00 0.00 0.00 0.00 0.00 0.00 0.00 0.00 0.00 0.01 0.01 0.03 0.09 0.13 0.15 0.13 0.08 0.04 0.03 0.03 0.03 0.04 0.03 0.02 0.02 0.01 0.00 0.00 0.00 0.00 0.01 0.01 0.02 0.03 0.03 0.04 0.05 0.04 0.03 0.02
0.00 0.00 0.00 0.00 0.00 0.00 0.00 0.00 0.00 0.00 0.01 0.00 0.00 0.01 0.01 0.01 0.05 0.08 0.10 0.08 0.08 0.06 0.03 0.06 0.07 0.05 0.04 0.03 0.02 0.01 0.01 0.00 0.00 0.01 0.01 0.02 0.03 0.03 0.04 0.05 0.05 0.05 0.04 0.03
0.00 0.00 0.00 0.00 0.00 0.01 0.01 0.01 0.00 0.00 0.01 0.01 0.01 0.01 0.01 0.06 0.10 0.11 0.21 0.11 0.05 0.05 0.06 0.07 0.06 0.05 0.04 0.03 0.01 0.01 0.01 0.01 0.01 0.02 0.02 0.02 0.03 0.04 0.04 0.04 0.04 0.03 0.02 0.01
0.00 0.00 0.00 0.00 0.00 0.01 0.00 0.01 0.01 0.00 0.00 0.01 0.01 0.01 0.01 0.06 0.10 0.08 0.10 0.08 0.06 0.05 0.04 0.03 0.03 0.04 0.05 0.05 0.03 0.02 0.01 0.02 0.02 0.03 0.03 0.03 0.03 0.03 0.03 0.03 0.03 0.03 0.02 0.02
0.00 0.00 0.00 0.00 0.00 0.01 0.01 0.00 0.00 0.01 0.01 0.01 0.02 0.01 0.01 0.02 0.03 0.06 0.11 0.08 0.04 0.06 0.06 0.04 0.03 0.03 0.03 0.03 0.03 0.03 0.02 0.02 0.02 0.02 0.02 0.02 0.02 0.02 0.02 0.02 0.03 0.03 0.03 0.03
0.00 0.00 0.00 0.00 0.00 0.01 0.00 0.00 0.00 0.01 0.01 0.01 0.02 0.02 0.01 0.02 0.04 0.06 0.08 0.11 0.04 0.04 0.04 0.04 0.02 0.03 0.09 0.06 0.03 0.03 0.03 0.02 0.02 0.02 0.02 0.02 0.02 0.01 0.01 0.01 0.02 0.02 0.02 0.03
0.01 0.01 0.01 0.01 0.01 0.01 0.01 0.00 0.01 0.01 0.01 0.01 0.02 0.03 0.02 0.02 0.03 0.05 0.06 0.07 0.05 0.05 0.06 0.06 0.04 0.03 0.07 0.12 0.05 0.05 0.06 0.04 0.03 0.03 0.02 0.01 0.02 0.01 0.01 0.02 0.02 0.02 0.02 0.04
0.01 0.01 0.02 0.02 0.03 0.02 0.01 0.01 0.01 0.01 0.01 0.02 0.02 0.02 0.02 0.02 0.02 0.03 0.04 0.05 0.06 0.08 0.08 0.06 0.06 0.06 0.06 0.06 0.04 0.03 0.04 0.03 0.02 0.02 0.01 0.01 0.02 0.01 0.01 0.02 0.02 0.02 0.03 0.03
0.03 0.03 0.03 0.04 0.05 0.04 0.03 0.03 0.02 0.02 0.02 0.02 0.02 0.03 0.03 0.02 0.03 0.03 0.03 0.04 0.05 0.07 0.12 0.08 0.05 0.05 0.05 0.04 0.03 0.03 0.02 0.02 0.01 0.01 0.01 0.01 0.01 0.01 0.01 0.01 0.01 0.02 0.03 0.03
0.06 0.06 0.06 0.07 0.06 0.08 0.07 0.04 0.06 0.05 0.04 0.04 0.03 0.04 0.04 0.04 0.03 0.03 0.04 0.05 0.05 0.07 0.12 0.08 0.04 0.03 0.03 0.03 0.02 0.02 0.02 0.02 0.01 0.01 0.02 0.01 0.01 0.01 0.01 0.01 0.02 0.02 0.03 0.03
0.07 0.08 0.10 0.11 0.09 0.09 0.11 0.06 0.08 0.10 0.09 0.06 0.03 0.03 0.05 0.07 0.08 0.06 0.07 0.06 0.06 0.04 0.06 0.05 0.03 0.02 0.01 0.01 0.01 0.01 0.01 0.01 0.01 0.01 0.02 0.02 0.02 0.02 0.02 0.02 0.03 0.03 0.03 0.03
MSLP
1012.87 1013.66 1014.22 1014.53 1014.64 1014.62 1014.57 1014.55 1014.61 1014.78 1015.01 1015.26 1015.49 1015.63 1015.68 1015.63 1015.52 1015.39 1015.29 1015.26 1015.30 1015.41 1015.57 1015.73 1015.86 1015.94 1015.97 1015.98 1015.98 1016.02 1016.11 1016.27 1016.48 1016.70 1016.89 1017.01 1017.03 1016.93 1016.73 1016.47 1016.20 1015.96 1015.81 1015.77
1013.74 1014.26 1014.52 1014.56 1014.46 1014.33 1014.27 1014.35 1014.61 1014.99 1015.45 1015.88 1016.22 1016.38 1016.37 1016.19 1015.91 1015.60 1015.35 1015.21 1015.20 1015.31 1015.49 1015.70 1015.88 1015.99 1016.03 1016.01 1015.98 1015.98 1016.05 1016.21 1016.43 1016.70 1016.95 1017.13 1017.19 1017.12 1016.92 1016.64 1016.32 1016.03 1015.82 1015.72
1014.29 1014.52 1014.49 1014.28 1014.03 1013.85 1013.87 1014.13 1014.64 1015.31 1016.03 1016.67 1017.12 1017.30 1017.20 1016.86 1016.37 1015.85 1015.41 1015.13 1015.04 1015.12 1015.34 1015.60 1015.84 1016.01 1016.08 1016.07 1016.02 1016.00 1016.04 1016.18 1016.41 1016.70 1016.99 1017.22 1017.33 1017.30 1017.12 1016.83 1016.48 1016.15 1015.90 1015.74
1014.56 1014.52 1014.24 1013.85 1013.51 1013.37 1013.53 1014.04 1014.85 1015.83 1016.83 1017.68 1018.23 1018.40 1018.19 1017.65 1016.92 1016.16 1015.50 1015.05 1014.85 1014.90 1015.13 1015.46 1015.77 1016.00 1016.12 1016.13 1016.09 1016.04 1016.05 1016.16 1016.38 1016.67 1016.98 1017.25 1017.40 1017.41 1017.26 1016.99 1016.65 1016.31 1016.02 1015.83
1014.63 1014.37 1013.92 1013.42 1013.08 1013.04 1013.40 1014.19 1015.31 1016.61 1017.86 1018.89 1019.51 1019.64 1019.29 1018.54 1017.56 1016.54 1015.65 1015.02 1014.70 1014.70 1014.94 1015.31 1015.69 1015.99 1016.16 1016.21 1016.16 1016.09 1016.07 1016.14 1016.32 1016.60 1016.91 1017.19 1017.39 1017.44 1017.34 1017.11 1016.80 1016.47 1016.18 1015.97
1014.61 1014.20 1013.64 1013.13 1012.85 1012.96 1013.56 1014.62 1016.03 1017.59 1019.05 1020.20 1020.85 1020.92 1020.42 1019.46 1018.24 1016.98 1015.87 1015.06 1014.63 1014.57 1014.80 1015.20 1015.64 1016.00 1016.22 1016.29 1016.24 1016.15 1016.08 1016.10 1016.23 1016.47 1016.76 1017.05 1017.27 1017.37 1017.33 1017.16 1016.90 1016.61 1016.34 1016.14
1014.56 1014.07 1013.49 1013.02 1012.86 1013.15 1013.96 1015.26 1016.89 1018.64 1020.23 1021.44 1022.08 1022.06 1021.43 1020.29 1018.88 1017.42 1016.13 1015.19 1014.66 1014.54 1014.76 1015.17 1015.64 1016.04 1016.29 1016.37 1016.32 1016.19 1016.07 1016.03 1016.11 1016.29 1016.56 1016.84 1017.09 1017.23 1017.25 1017.15 1016.95 1016.72 1016.49 1016.31
1014.51 1014.01 1013.47 1013.10 1013.07 1013.53 1014.51 1015.96 1017.73 1019.55 1021.19 1022.39 1022.97 1022.88 1022.14 1020.88 1019.35 1017.78 1016.40 1015.37 1014.78 1014.62 1014.82 1015.23 1015.70 1016.10 1016.36 1016.43 1016.36 1016.20 1016.04 1015.94 1015.96 1016.09 1016.33 1016.60 1016.86 1017.04 1017.12 1017.09 1016.97 1016.80 1016.62 1016.48
1014.42 1013.97 1013.53 1013.28 1013.38 1013.96 1015.04 1016.56 1018.34 1020.14 1021.72 1022.85 1023.37 1023.20 1022.41 1021.12 1019.56 1017.98 1016.59 1015.56 1014.95 1014.78 1014.95 1015.33 1015.78 1016.16 1016.40 1016.46 1016.36 1016.17 1015.97 1015.83 1015.80 1015.90 1016.10 1016.37 1016.63 1016.85 1016.98 1017.02 1016.96 1016.86 1016.73 1016.62
1014.23 1013.89 1013.58 1013.46 1013.69 1014.34 1015.43 1016.90 1018.59 1020.27 1021.72 1022.72 1023.15 1022.95 1022.17 1020.94 1019.47 1017.98 1016.68 1015.70 1015.13 1014.96 1015.11 1015.45 1015.85 1016.19 1016.38 1016.41 1016.30 1016.09 1015.88 1015.72 1015.67 1015.74 1015.92 1016.18 1016.45 1016.70 1016.87 1016.95 1016.96 1016.90 1016.82 1016.74
1013.91 1013.72 1013.57 1013.59 1013.90 1014.57 1015.60 1016.93 1018.43 1019.90 1021.14 1022.00 1022.35 1022.15 1021.44 1020.36 1019.07 1017.77 1016.64 1015.79 1015.29 1015.14 1015.25 1015.54 1015.87 1016.14 1016.28 1016.28 1016.16 1015.96 1015.75 1015.61 1015.56 1015.64 1015.82 1016.07 1016.34 1016.60 1016.79 1016.91 1016.96 1016.94 1016.89 1016.83
1013.46 1013.46 1013.48 1013.64 1014.02 1014.65 1015.56 1016.69 1017.93 1019.13 1020.14 1020.83 1021.11 1020.95 1020.38 1019.50 1018.47 1017.43 1016.52 1015.84 1015.43 1015.30 1015.38 1015.58 1015.82 1016.01 1016.10 1016.07 1015.95 1015.78 1015.62 1015.51 1015.50 1015.59 1015.78 1016.03 1016.30 1016.56 1016.76 1016.89 1016.96 1016.97 1016.94 1016.90
1012.96 1013.16 1013.38 1013.67 1014.08 1014.65 1015.40 1016.28 1017.23 1018.14 1018.91 1019.43 1019.66 1019.56 1019.17 1018.55 1017.80 1017.05 1016.39 1015.88 1015.57 1015.45 1015.48 1015.60 1015.73 1015.83 1015.86 1015.81 1015.71 1015.59 1015.49 1015.44 1015.48 1015.61 1015.80 1016.05 1016.31 1016.55 1016.74 1016.88 1016.96 1016.98 1016.97 1016.94
1012.52 1012.94 1013.33 1013.73 1014.16 1014.66 1015.22 1015.84 1016.49 1017.11 1017.65 1018.03 1018.22 1018.21 1018.01 1017.66 1017.21 1016.75 1016.33 1016.00 1015.77 1015.65 1015.61 1015.62 1015.64 1015.65 1015.62 1015.56 1015.49 1015.42 1015.39 1015.42 1015.51 1015.67 1015.87 1016.10 1016.33 1016.54 1016.71 1016.84 1016.92 1016.96 1016.97 1016.96
1012.27 1012.87 1013.42 1013.91 1014.34 1014.73 1015.10 1015.48 1015.85 1016.20 1016.53 1016.79 1016.97 1017.06 1017.05 1016.96 1016.80 1016.61 1016.41 1016.22 1016.06 1015.92 1015.81 1015.72 1015.63 1015.54 1015.46 1015.39 1015.34 1015.34 1015.38 1015.47 1015.60 1015.77 1015.97 1016.16 1016.35 1016.51 1016.64 1016.75 1016.83 1016.88 1016.93 1016.95
1012.28 1013.03 1013.68 1014.21 1014.60 1014.88 1015.07 1015.21 1015.34 1015.47 1015.62 1015.80 1015.99 1016.18 1016.36 1016.51 1016.61 1016.65 1016.64 1016.57 1016.46 1016.30 1016.12 1015.93 1015.74 1015.57 1015.44 1015.37 1015.35 1015.38 1015.48 1015.61 1015.76 1015.92 1016.08 1016.22 1016.33 1016.43 1016.51 1016.59 1016.67 1016.75 1016.83 1016.90
1012.59 1013.40 1014.09 1014.60 1014.92 1015.07 1015.08 1015.02 1014.93 1014.88 1014.91 1015.03 1015.25 1015.56 1015.91 1016.27 1016.59 1016.84 1016.99 1017.03 1016.96 1016.79 1016.55 1016.28 1016.02 1015.79 1015.63 1015.55 1015.54 1015.61 1015.73 1015.87 1016.01 1016.13 1016.22 1016.27 1016.31 1016.32 1016.34 1016.39 1016.46 1016.55 1016.67 1016.79
1013.13 1013.92 1014.56 1014.98 1015.19 1015.19 1015.04 1014.80 1014.55 1014.37 1014.32 1014.42 1014.69 1015.10 1015.61 1016.15 1016.67 1017.10 1017.39 1017.53 1017.51 1017.35 1017.09 1016.79 1016.48 1016.22 1016.05 1015.96 1015.96 1016.03 1016.15 1016.27 1016.36 1016.42 1016.42 1016.37 1016.30 1016.22 1016.17 1016.17 1016.22 1016.32 1016.47 1016.63
1013.78 1014.46 1014.97 1015.26 1015.31 1015.16 1014.85 1014.47 1014.10 1013.84 1013.75 1013.86 1014.19 1014.71 1015.36 1016.07 1016.75 1017.33 1017.76 1018.00 1018.05 1017.94 1017.70 1017.40 1017.10 1016.84 1016.66 1016.58 1016.58 1016.65 1016.74 1016.81 1016.84 1016.80 1016.70 1016.54 1016.36 1016.19 1016.05 1015.99 1016.01 1016.10 1016.25 1016.43
1014.40 1014.91 1015.24 1015.35 1015.24 1014.93 1014.49 1014.01 1013.57 1013.27 1013.17 1013.32 1013.72 1014.34 1015.10 1015.95 1016.77 1017.48 1018.04 1018.38 1018.53 1018.49 1018.32 1018.07 1017.80 1017.58 1017.42 1017.35 1017.36 1017.40 1017.45 1017.47 1017.42 1017.29 1017.08 1016.82 1016.53 1016.26 1016.05 1015.92 1015.88 1015.94 1016.06 1016.22
1014.90 1015.21 1015.34 1015.27 1014.99 1014.55 1014.02 1013.47 1013.00 1012.70 1012.63 1012.83 1013.30 1014.00 1014.86 1015.80 1016.73 1017.55 1018.22 1018.67 1018.92 1018.98 1018.90 1018.73 1018.54 1018.37 1018.26 1018.21 1018.21 1018.23 1018.24 1018.20 1018.08 1017.87 1017.57 1017.22 1016.84 1016.48 1016.19 1015.99 1015.88 1015.87 1015.93 1016.03
1015.23 1015.35 1015.30 1015.06 1014.66 1014.13 1013.55 1012.99 1012.53 1012.27 1012.25 1012.50 1013.03 1013.78 1014.70 1015.70 1016.69 1017.59 1018.34 1018.89 1019.24 1019.40 1019.43 1019.36 1019.25 1019.15 1019.08 1019.06 1019.06 1019.06 1019.03 1018.94 1018.76 1018.49 1018.13 1017.71 1017.27 1016.85 1016.48 1016.20 1016.02 1015.92 1015.89 1015.89
1015.44 1015.40 1015.21 1014.86 1014.39 1013.83 1013.26 1012.73 1012.33 1012.13 1012.17 1012.47 1013.03 1013.80 1014.73 1015.75 1016.75 1017.68 1018.47 1019.08 1019.51 1019.77 1019.89 1019.92 1019.89 1019.86 1019.83 1019.83 1019.82 1019.81 1019.75 1019.62 1019.40 1019.09 1018.69 1018.24 1017.77 1017.31 1016.90 1016.55 1016.28 1016.08 1015.94 1015.82
1015.58 1015.45 1015.19 1014.80 1014.32 1013.80 1013.28 1012.84 1012.53 1012.41 1012.51 1012.84 1013.41 1014.16 1015.06 1016.03 1017.00 1017.91 1018.69 1019.33 1019.80 1020.12 1020.32 1020.41 1020.45 1020.47 1020.47 1020.47 1020.46 1020.42 1020.33 1020.17 1019.93 1019.61 1019.21 1018.76 1018.28 1017.81 1017.36 1016.96 1016.62 1016.32 1016.06 1015.83
1015.74 1015.59 1015.32 1014.96 1014.55 1014.11 1013.71 1013.38 1013.18 1013.15 1013.30 1013.66 1014.20 1014.91 1015.73 1016.61 1017.49 1018.32 1019.06 1019.68 1020.16 1020.50 1020.73 1020.87 1020.95 1020.98 1020.99 1020.98 1020.94 1020.87 1020.75 1020.56 1020.31 1019.99 1019.61 1019.18 1018.72 1018.26 1017.81 1017.38 1016.98 1016.60 1016.24 1015.89
1015.98 1015.85 1015.63 1015.36 1015.06 1014.76 1014.50 1014.31 1014.23 1014.29 1014.49 1014.85 1015.35 1015.98 1016.69 1017.45 1018.21 1018.94 1019.60 1020.15 1020.60 1020.94 1021.17 1021.32 1021.40 1021.43 1021.42 1021.37 1021.29 1021.17 1021.01 1020.79 1020.53 1020.21 1019.86 1019.46 1019.04 1018.61 1018.17 1017.74 1017.30 1016.87 1016.43 1015.98
Thickness
5837 5820 5808 5817 5825 5823 5821 5811 5806 5817 5834 5823 5811 5808 5816 5823 5820 5815 5813 5812 5810 5809 5812 5811 5808 5806 5802 5797 5793 5790 5785 5782 5780 5776 5772 5768 5765 5765 5765 5765 5764 5762 5762 5762
5810 5807 5826 5835 5835 5830 5822 5811 5807 5819 5832 5820 5807 5806 5817 5822 5823 5822 5819 5816 5813 5810 5809 5809 5808 5806 5802 5798 5795 5791 5788 5785 5782 5779 5776 5772 5769 5767 5766 5765 5764 5763 5762 5762
5800 5817 5836 5831 5825 5820 5818 5813 5811 5811 5818 5818 5807 5795 5805 5818 5823 5824 5825 5823 5820 5816 5811 5809 5808 5806 5803 5799 5797 5796 5791 5788 5785 5782 5778 5774 5770 5767 5764 5763 5763 5763 5763 5762
5806 5825 5829 5822 5819 5822 5808 5829 5827 5818 5798 5784 5796 5767 5793 5808 5811 5817 5820 5821 5822 5821 5818 5814 5811 5808 5806 5804 5802 5798 5794 5790 5787 5784 5779 5773 5768 5763 5763 5763 5763 5763 5763 5762
5802 5821 5821 5815 5824 5830 5822 5838 5830 5820 5798 5781 5786 5771 5785 5804 5803 5814 5822 5825 5827 5826 5823 5819 5817 5814 5811 5809 5805 5800 5796 5792 5789 5785 5781 5775 5771 5768 5766 5765 5763 5762 5763 5762
5809 5828 5829 5829 5839 5840 5836 5824 5812 5799 5783 5763 5779 5773 5777 5798 5810 5819 5825 5829 5830 5829 5827 5824 5822 5817 5813 5811 5806 5801 5796 5792 5790 5786 5782 5778 5773 5769 5766 5763 5761 5761 5760 5761
5794 5812 5830 5838 5824 5828 5822 5788 5761 5758 5748 5756 5782 5778 5783 5818 5829 5831 5829 5830 5833 5831 5828 5824 5819 5815 5812 5810 5806 5803 5797 5792 5790 5786 5783 5780 5776 5772 5768 5765 5762 5760 5759 5759
5769 5776 5814 5830 5821 5809 5808 5791 5758 5746 5743 5755 5776 5774 5798 5830 5839 5841 5838 5836 5834 5830 5829 5826 5822 5818 5815 5812 5808 5804 5798 5794 5790 5787 5783 5781 5777 5773 5770 5767 5765 5762 5760 5759
5764 5773 5816 5831 5836 5823 5803 5791 5792 5767 5759 5750 5761 5782 5805 5827 5830 5832 5832 5832 5830 5829 5829 5827 5824 5821 5817 5813 5810 5806 5800 5794 5791 5788 5784 5780 5777 5774 5770 5768 5766 5763 5761 5760
5780 5774 5800 5821 5830 5825 5818 5805 5777 5761 5744 5739 5756 5769 5778 5803 5814 5823 5825 5826 5828 5829 5829 5827 5824 5821 5818 5815 5811 5807 5801 5796 5792 5788 5784 5780 5776 5774 5771 5767 5764 5762 5760 5759
5783 5768 5779 5797 5799 5799 5805 5799 5779 5762 5758 5742 5739 5760 5806 5809 5817 5820 5823 5827 5828 5828 5828 5826 5823 5820 5817 5814 5809 5805 5800 5795 5790 5787 5783 5779 5775 5772 5769 5766 5763 5760 5758 5756
5778 5760 5754 5777 5805 5818 5810 5799 5781 5762 5758 5751 5747 5765 5821 5822 5825 5825 5825 5828 5829 5829 5828 5826 5822 5818 5814 5810 5807 5803 5798 5794 5790 5786 5781 5777 5773 5770 5766 5763 5761 5758 5755 5753
5773 5752 5740 5751 5771 5795 5798 5799 5789 5775 5760 5748 5747 5769 5818 5821 5821 5825 5825 5825 5825 5825 5823 5820 5818 5814 5811 5808 5805 5801 5798 5793 5789 5785 5779 5774 5770 5767 5763 5761 5758 5755 5752 5749
5780 5749 5741 5739 5752 5775 5783 5793 5794 5775 5755 5753 5762 5777 5800 5808 5812 5817 5820 5819 5819 5820 5818 5816 5813 5811 5809 5807 5803 5800 5796 5792 5787 5782 5777 5772 5768 5765 5761 5758 5755 5752 5748 5745
5767 5747 5754 5762 5776 5783 5785 5789 5793 5784 5775 5767 5776 5782 5796 5807 5813 5816 5817 5816 5816 5815 5814 5813 5810 5808 5806 5803 5800 5797 5794 5790 5786 5780 5774 5770 5766 5763 5759 5755 5751 5748 5745 5741
5751 5745 5751 5756 5772 5777 5779 5787 5791 5790 5789 5784 5785 5786 5807 5814 5814 5813 5814 5814 5812 5812 5811 5811 5808 5805 5803 5801 5799 5795 5791 5788 5783 5777 5772 5768 5764 5760 5755 5751 5747 5743 5739 5736
5736 5735 5729 5731 5754 5762 5756 5779 5785 5787 5793 5789 5780 5790 5805 5804 5806 5809 5812 5813 5811 5811 5811 5808 5805 5803 5802 5801 5798 5793 5790 5786 5780 5775 5770 5766 5762 5757 5752 5748 5743 5739 5734 5730
5731 5722 5714 5719 5735 5726 5756 5789 5795 5790 5793 5797 5797 5801 5805 5805 5808 5811 5813 5811 5810 5811 5810 5807 5804 5801 5800 5799 5796 5792 5787 5782 5776 5771 5767 5763 5759 5754 5749 5744 5738 5734 5730 5726
5735 5722 5709 5704 5711 5727 5759 5783 5788 5781 5776 5792 5793 5797 5800 5803 5801 5799 5808 5812 5813 5812 5810 5807 5804 5801 5798 5794 5791 5786 5781 5776 5772 5767 5763 5760 5756 5751 5745 5740 5735 5730 5726 5721
5727 5722 5708 5702 5706 5710 5745 5780 5795 5784 5761 5787 5792 5792 5793 5795 5779 5785 5804 5806 5808 5808 5805 5803 5800 5797 5793 5789 5786 5780 5774 5770 5766 5764 5760 5757 5753 5748 5742 5736 5731 5726 5722 5717
5703 5702 5698 5698 5702 5718 5755 5777 5784 5750 5753 5783 5789 5790 5790 5787 5789 5797 5802 5802 5802 5800 5798 5797 5794 5791 5788 5786 5781 5774 5768 5765 5763 5761 5757 5753 5749 5744 5738 5733 5727 5722 5717 5711
5690 5688 5689 5691 5694 5709 5756 5765 5757 5757 5776 5781 5784 5786 5787 5788 5792 5793 5794 5794 5793 5790 5789 5789 5786 5783 5782 5780 5775 5768 5763 5761 5759 5755 5751 5747 5743 5739 5734 5727 5721 5716 5711 5705
5689 5694 5694 5697 5704 5730 5748 5754 5763 5769 5769 5773 5777 5781 5783 5781 5782 5783 5783 5783 5782 5783 5783 5781 5778 5774 5773 5772 5769 5762 5759 5757 5753 5748 5744 5739 5736 5731 5727 5721 5715 5710 5705 5700
5688 5698 5696 5698 5711 5726 5739 5750 5757 5764 5766 5770 5773 5774 5775 5773 5773 5774 5775 5775 5774 5774 5774 5773 5770 5767 5764 5763 5761 5759 5756 5752 5747 5742 5737 5732 5728 5723 5719 5715 5710 5705 5700 5694
5678 5686 5686 5690 5703 5715 5727 5736 5745 5753 5760 5762 5763 5765 5765 5765 5764 5766 5766 5767 5767 5766 5767 5766 5763 5760 5757 5755 5753 5752 5750 5746 5740 5734 5730 5725 5720 5715 5710 5706 5701 5698 5695 5692
5671 5675 5675 5678 5692 5697 5707 5724 5735 5740 5745 5750 5752 5753 5754 5755 5755 5756 5756 5758 5759 5759 5759 5757 5754 5752 5750 5748 5745 5744 5742 5739 5733 5727 5722 5718 5712 5707 5702 5697 5691 5689 5687 5685